Simultaneous Nadir Overpasses (SNOs) Predictions

Prediction of SNOs between METOP-A and TERRA Satellite Orbit:

Table of predicted SNOs for the next 14.0 days since TLE Epoch: 1/9/2021
Index Date (METOP-A) Time (METOP-A) Lat,Lon (METOP-A) SZA (METOP-A ) Date (TERRA) Time (TERRA) Lat,Lon (TERRA) SZA (TERRA ) Distance(km) Time Diff (sec)
1 01/09/2021 13:46:30 -81.36,-158.84 74.15 01/09/2021 13:46:39 -81.36,-158.68 74.13 2.59 9
2 01/09/2021 14:37:10 81.35, 8.80 105.88 01/09/2021 14:36:06 81.35, 8.72 105.84 1.42 64
3 01/12/2021 08:30:18 81.43, 97.79 105.20 01/12/2021 08:31:31 81.27, 98.37 105.17 20.35 73
4 01/12/2021 09:20:52 -81.35, -92.20 74.60 01/12/2021 09:20:53 -81.36, -92.19 74.59 1.65 1
5 01/12/2021 10:11:33 81.35, 75.02 105.39 01/12/2021 10:10:20 81.35, 75.18 105.38 2.69 73
6 01/15/2021 04:04:34 81.36, 166.33 104.85 01/15/2021 04:05:40 81.35, 166.31 104.86 1.81 66
7 01/15/2021 04:55:14 -81.35, -25.98 75.13 01/15/2021 04:55:07 -81.35, -26.12 75.16 2.44 7
8 01/17/2021 23:38:56 81.36,-127.12 104.29 01/17/2021 23:39:54 81.35,-127.30 104.29 3.18 58
9 01/18/2021 00:29:37 -81.36, 40.21 75.72 01/18/2021 00:29:21 -81.34, 40.30 75.73 2.20 16
10 01/20/2021 19:13:18 81.35, -60.60 103.68 01/20/2021 19:14:07 81.36, -60.56 103.71 1.29 49



Historial Predications of SNOs between METOP-A and TERRA
